OE7AOT-2 Weather Reports


Display with metric or nautical units.
time (UTC)temp
F
wind
direction
speed
MPH
gust
MPH
rain 1hr
in
rain 24hr
in
rain mn
in
humidity
%
barometer
mb
20260507044712 49 0 44.0 0.0 0.00 0.00 0.00 76 921.1
20260507044604 49 0 50.0 0.0 0.00 0.00 0.00 76 921.1
20260507044455 49 45 42.0 0.0 0.00 0.00 0.00 76 921.1
20260507044347 49 0 80.0 0.0 0.00 0.00 0.00 76 921.1
20260507044238 49 0 52.0 0.0 0.00 0.00 0.00 76 921.0
20260507044130 49 45 31.0 0.0 0.00 0.00 0.00 76 921.1
20260507044021 49 45 35.0 0.0 0.00 0.00 0.00 76 921.1
20260507043913 49 0 40.0 0.0 0.00 0.00 0.00 76 921.1
20260507043805 49 0 43.0 0.0 0.00 0.00 0.00 76 921.1
20260507043656 49 0 24.0 0.0 0.00 0.00 0.00 76 921.1
20260507043548 49 45 13.0 0.0 0.00 0.00 0.00 76 921.1
20260507043439 49 0 1.0 0.0 0.00 0.00 0.00 76 921.1
20260507043331 49 90 0.0 0.0 0.00 0.00 0.00 76 921.1
20260507043222 49 0 8.0 0.0 0.00 0.00 0.00 76 921.2
20260507043114 49 0 28.0 0.0 0.00 0.00 0.00 76 921.2
20260507043005 48 180 1.0 0.0 0.00 0.00 0.00 76 921.1
20260507042857 48 0 20.0 0.0 0.00 0.00 0.00 76 921.2
20260507042749 48 315 24.0 0.0 0.00 0.00 0.00 76 921.1
20260507042640 48 45 25.0 0.0 0.00 0.00 0.00 76 921.1
20260507042532 48 0 22.0 0.0 0.00 0.00 0.00 76 921.1
20260507042423 48 45 15.0 0.0 0.00 0.00 0.00 76 921.1
20260507042315 48 0 6.0 0.0 0.00 0.00 0.00 76 921.1
20260507042206 48 0 2.0 0.0 0.00 0.00 0.00 76 921.1
20260507042058 48 45 1.0 0.0 0.00 0.00 0.00 76 921.1
20260507041949 48 45 26.0 0.0 0.00 0.00 0.00 77 921.1
20260507041841 48 45 23.0 0.0 0.00 0.00 0.00 77 921.1
20260507041733 48 0 19.0 0.0 0.00 0.00 0.00 77 921.0
20260507041624 48 0 21.0 0.0 0.00 0.00 0.00 77 921.0
20260507041516 48 45 2.0 0.0 0.00 0.00 0.00 77 921.0
20260507041407 48 135 18.0 0.0 0.00 0.00 0.00 77 921.0
20260507041259 48 180 22.0 0.0 0.00 0.00 0.00 77 921.0
20260507041150 48 45 8.0 0.0 0.00 0.00 0.00 77 921.0
20260507041042 48 45 29.0 0.0 0.00 0.00 0.00 76 920.9
20260507040934 47 315 5.0 0.0 0.00 0.00 0.00 76 920.9
20260507040825 47 45 13.0 0.0 0.00 0.00 0.00 76 920.9
20260507040717 47 315 11.0 0.0 0.00 0.00 0.00 76 920.9
20260507040608 47 0 22.0 0.0 0.00 0.00 0.00 76 920.9
20260507040500 47 0 25.0 0.0 0.00 0.00 0.00 76 920.9
20260507040351 47 45 14.0 0.0 0.00 0.00 0.00 76 920.9
20260507040243 47 45 8.0 0.0 0.00 0.00 0.00 76 920.8
20260507040134 47 315 26.0 0.0 0.00 0.00 0.00 76 920.8
20260507040026 47 315 26.0 0.0 0.00 0.00 0.00 76 920.8
20260507035918 47 90 37.0 0.0 0.00 0.00 0.00 76 920.8
20260507035809 47 0 22.0 0.0 0.00 0.00 0.00 76 920.8
20260507035701 47 135 59.0 0.0 0.00 0.00 0.00 76 920.8
20260507035553 47 0 57.0 0.0 0.00 0.00 0.00 76 920.7
20260507035444 47 90 52.0 0.0 0.00 0.00 0.00 76 920.7
20260507035336 47 0 19.0 0.0 0.00 0.00 0.00 76 920.7
20260507035228 47 90 48.0 0.0 0.00 0.00 0.00 76 920.7
20260507035120 47 0 32.0 0.0 0.00 0.00 0.00 76 920.7
20260507035011 47 0 63.0 0.0 0.00 0.00 0.00 76 920.7
20260507034903 47 0 69.0 0.0 0.00 0.00 0.00 76 920.7
20260507034755 47 315 28.0 0.0 0.00 0.00 0.00 76 920.7
20260507034647 47 0 53.0 0.0 0.00 0.00 0.00 76 920.7
20260507034538 47 45 70.0 0.0 0.00 0.00 0.00 76 920.7
20260507034430 47 42.0 0.0 0.00 0.00 0.00 76 920.7
20260507034322 47 0 67.0 0.0 0.00 0.00 0.00 76 920.6
20260507034213 47 0 65.0 0.0 0.00 0.00 0.00 76 920.5
20260507034105 47 0 39.0 0.0 0.00 0.00 0.00 76 920.4
20260507033957 47 0 44.0 0.0 0.00 0.00 0.00 76 920.5
20260507033849 47 0 42.0 0.0 0.00 0.00 0.00 76 920.5
20260507033740 47 315 26.0 0.0 0.00 0.00 0.00 76 920.5
20260507033632 47 45 34.0 0.0 0.00 0.00 0.00 76 920.5
20260507033524 47 0 46.0 0.0 0.00 0.00 0.00 76 920.4
20260507033415 47 0 41.0 0.0 0.00 0.00 0.00 76 920.4
20260507033307 47 0 40.0 0.0 0.00 0.00 0.00 76 920.5
20260507033159 47 315 30.0 0.0 0.00 0.00 0.00 76 920.5
20260507033051 47 0 51.0 0.0 0.00 0.00 0.00 76 920.5
20260507032942 47 45 57.0 0.0 0.00 0.00 0.00 76 920.4
20260507032834 47 45 39.0 0.0 0.00 0.00 0.00 76 920.4
20260507032726 47 315 9.0 0.0 0.00 0.00 0.00 76 920.5
20260507032617 47 90 44.0 0.0 0.00 0.00 0.00 76 920.4
20260507032509 47 45 68.0 0.0 0.00 0.00 0.00 76 920.4
20260507032401 47 45 88.0 0.0 0.00 0.00 0.00 76 920.4
20260507032253 47 0 39.0 0.0 0.00 0.00 0.00 76 920.4
20260507032144 47 0 41.0 0.0 0.00 0.00 0.00 76 920.4
20260507032036 47 315 49.0 0.0 0.00 0.00 0.00 76 920.4
20260507031928 47 45 36.0 0.0 0.00 0.00 0.00 76 920.4
20260507031820 47 315 48.0 0.0 0.00 0.00 0.00 76 920.5
20260507031711 47 0 63.0 0.0 0.00 0.00 0.00 76 920.5
20260507031603 47 0 40.0 0.0 0.00 0.00 0.00 76 920.4
20260507031455 47 45 43.0 0.0 0.00 0.00 0.00 76 920.5
20260507031347 47 0 20.0 0.0 0.00 0.00 0.00 76 920.5
20260507031238 47 270 33.0 0.0 0.00 0.00 0.00 76 920.5
20260507031130 47 0 27.0 0.0 0.00 0.00 0.00 76 920.5
20260507031022 47 0 20.0 0.0 0.00 0.00 0.00 76 920.5
20260507030913 47 0 18.0 0.0 0.00 0.00 0.00 76 920.5
20260507030805 47 0 26.0 0.0 0.00 0.00 0.00 76 920.5
20260507030657 47 315 28.0 0.0 0.00 0.00 0.00 76 920.5
20260507030549 47 0 33.0 0.0 0.00 0.00 0.00 76 920.5
20260507030440 47 45 49.0 0.0 0.00 0.00 0.00 76 920.5
20260507030332 47 315 42.0 0.0 0.00 0.00 0.00 76 920.6
20260507030224 47 0 29.0 0.0 0.00 0.00 0.00 76 920.6
20260507030116 47 315 22.0 0.0 0.00 0.00 0.00 76 920.5
20260507030007 47 45 72.0 0.0 0.00 0.00 0.00 76 920.6
20260507025859 47 45 20.0 0.0 0.00 0.00 0.00 76 920.6
20260507025751 47 0 74.0 0.0 0.00 0.00 0.00 76 920.6
20260507025642 47 0 75.0 0.0 0.00 0.00 0.00 76 920.5
20260507025534 47 0 17.0 0.0 0.00 0.00 0.00 76 920.5
20260507025426 47 0 37.0 0.0 0.00 0.00 0.00 76 920.6
20260507025318 47 45 62.0 0.0 0.00 0.00 0.00 76 920.5
20260507025209 47 0 67.0 0.0 0.00 0.00 0.00 76 920.5
20260507025101 47 0 27.0 0.0 0.00 0.00 0.00 76 920.5
20260507024953 47 315 21.0 0.0 0.00 0.00 0.00 76 920.6
20260507024844 47 0 14.0 0.0 0.00 0.00 0.00 76 920.6
20260507024736 47 0 43.0 0.0 0.00 0.00 0.00 76 920.5
20260507024628 47 0 48.0 0.0 0.00 0.00 0.00 76 920.5
20260507024520 47 0 26.0 0.0 0.00 0.00 0.00 76 920.5
20260507024411 47 0 39.0 0.0 0.00 0.00 0.00 76 920.5
20260507024303 47 45 61.0 0.0 0.00 0.00 0.00 76 920.5
20260507024155 47 45 13.0 0.0 0.00 0.00 0.00 76 920.5
20260507024046 47 0 55.0 0.0 0.00 0.00 0.00 76 920.5
20260507023938 47 0 19.0 0.0 0.00 0.00 0.00 76 920.5
20260507023830 47 315 37.0 0.0 0.00 0.00 0.00 76 920.6
20260507023722 47 0 60.0 0.0 0.00 0.00 0.00 76 920.5
20260507023613 47 0 75.0 0.0 0.00 0.00 0.00 76 920.6
20260507023505 47 45 25.0 0.0 0.00 0.00 0.00 76 920.5
20260507023357 47 0 66.0 0.0 0.00 0.00 0.00 76 920.6
20260507023249 47 315 61.0 0.0 0.00 0.00 0.00 76 920.5
20260507023140 47 45 62.0 0.0 0.00 0.00 0.00 76 920.5
20260507023032 46 0 57.0 0.0 0.00 0.00 0.00 76 920.6
20260507022924 46 315 46.0 0.0 0.00 0.00 0.00 76 920.5
20260507022815 46 45 49.0 0.0 0.00 0.00 0.00 76 920.5
20260507022708 46 0 11.0 0.0 0.00 0.00 0.00 76 920.5
20260507022559 46 315 81.0 0.0 0.00 0.00 0.00 76 920.6
20260507022451 46 45 73.0 0.0 0.00 0.00 0.00 76 920.5
20260507022342 46 315 33.0 0.0 0.00 0.00 0.00 76 920.5
20260507022234 46 0 19.0 0.0 0.00 0.00 0.00 76 920.5
20260507022126 46 90 59.0 0.0 0.00 0.00 0.00 76 920.5
20260507022017 45 0 73.0 0.0 0.00 0.00 0.00 76 920.5
20260507021909 45 0 48.0 0.0 0.00 0.00 0.00 76 920.5
20260507021801 45 0 31.0 0.0 0.00 0.00 0.00 76 920.5
20260507021653 45 0 15.0 0.0 0.00 0.00 0.00 76 920.5
20260507021544 45 315 29.0 0.0 0.00 0.00 0.00 75 920.5
20260507021436 45 315 39.0 0.0 0.00 0.00 0.00 75 920.5
20260507021328 45 45 30.0 0.0 0.00 0.00 0.00 75 920.5
20260507021220 45 0 3.0 0.0 0.00 0.00 0.00 75 920.5
20260507021003 44 45 15.0 0.0 0.00 0.00 0.00 74 920.5
20260507020855 44 315 11.0 0.0 0.00 0.00 0.00 74 920.5
20260507020746 44 315 10.0 0.0 0.00 0.00 0.00 74 920.5
20260507020638 44 0 16.0 0.0 0.00 0.00 0.00 74 920.5
20260507020530 45 315 12.0 0.0 0.00 0.00 0.00 74 920.5
20260507020422 45 225 0.0 0.0 0.00 0.00 0.00 73 920.5
20260507020313 45 270 2.0 0.0 0.00 0.00 0.00 73 920.5
20260507020205 45 270 0.0 0.0 0.00 0.00 0.00 73 920.4
20260507015949 45 315 8.0 0.0 0.00 0.00 0.00 74 920.3
20260507015840 45 315 0.0 0.0 0.00 0.00 0.00 74 920.4
20260507015732 45 315 8.0 0.0 0.00 0.00 0.00 74 920.3
20260507015624 46 315 12.0 0.0 0.00 0.00 0.00 74 920.4
20260507015515 46 0 7.0 0.0 0.00 0.00 0.00 74 920.3
20260507015408 46 45 0.0 0.0 0.00 0.00 0.00 74 920.4
20260507015259 46 315 2.0 0.0 0.00 0.00 0.00 74 920.3
20260507015151 46 225 0.0 0.0 0.00 0.00 0.00 74 920.3
20260507015042 46 45 9.0 0.0 0.00 0.00 0.00 75 920.3
20260507014934 46 315 2.0 0.0 0.00 0.00 0.00 75 920.3
20260507014826 46 45 17.0 0.0 0.00 0.00 0.00 75 920.3
20260507014718 46 0 25.0 0.0 0.00 0.00 0.00 75 920.3
20260507014609 46 0 39.0 0.0 0.00 0.00 0.00 75 920.3
20260507014501 47 45 33.0 0.0 0.00 0.00 0.00 75 920.3
20260507014353 47 0 15.0 0.0 0.00 0.00 0.00 75 920.3
20260507014244 47 270 14.0 0.0 0.00 0.00 0.00 75 920.3
20260507014136 47 0 30.0 0.0 0.00 0.00 0.00 75 920.4
20260507014028 47 0 6.0 0.0 0.00 0.00 0.00 75 920.3
20260507013920 47 45 22.0 0.0 0.00 0.00 0.00 75 920.4
20260507013811 47 315 3.0 0.0 0.00 0.00 0.00 76 920.3
20260507013703 47 90 18.0 0.0 0.00 0.00 0.00 76 920.4
20260507013555 46 315 55.0 0.0 0.00 0.00 0.00 76 920.4
20260507013446 46 315 8.0 0.0 0.00 0.00 0.00 76 920.4
20260507013338 46 270 39.0 0.0 0.00 0.00 0.00 76 920.3
20260507013230 46 0 7.0 0.0 0.00 0.00 0.00 75 920.3
20260507013122 46 0 30.0 0.0 0.00 0.00 0.00 76 920.3
20260507013013 46 0 7.0 0.0 0.00 0.00 0.00 75 920.3
20260507012905 46 0 54.0 0.0 0.00 0.00 0.00 75 920.3
20260507012757 46 0 42.0 0.0 0.00 0.00 0.00 75 920.3
20260507012648 46 0 33.0 0.0 0.00 0.00 0.00 75 920.2
20260507012540 46 45 30.0 0.0 0.00 0.00 0.00 75 920.3
20260507012432 46 315 2.0 0.0 0.00 0.00 0.00 75 920.3
20260507012324 46 45 23.0 0.0 0.00 0.00 0.00 75 920.3
20260507012215 46 0 10.0 0.0 0.00 0.00 0.00 75 920.2
20260507012108 46 0 12.0 0.0 0.00 0.00 0.00 75 920.2
20260507011959 46 45 21.0 0.0 0.00 0.00 0.00 75 920.2
20260507011851 46 0 28.0 0.0 0.00 0.00 0.00 75 920.2
20260507011742 46 0 22.0 0.0 0.00 0.00 0.00 75 920.2
20260507011634 46 45 17.0 0.0 0.00 0.00 0.00 75 920.2
20260507011526 46 315 8.0 0.0 0.00 0.00 0.00 75 920.2
20260507011417 46 315 14.0 0.0 0.00 0.00 0.00 75 920.2
20260507011309 46 45 10.0 0.0 0.00 0.00 0.00 75 920.1
20260507011201 46 0 15.0 0.0 0.00 0.00 0.00 75 920.2
20260507011053 46 0 65.0 0.0 0.00 0.00 0.00 75 920.1
20260507010944 46 0 36.0 0.0 0.00 0.00 0.00 75 920.1
20260507010836 46 0 62.0 0.0 0.00 0.00 0.00 75 920.1
20260507010728 46 0 45.0 0.0 0.00 0.00 0.00 75 920.0
20260507010620 46 45 34.0 0.0 0.00 0.00 0.00 75 920.1
20260507010511 46 0 37.0 0.0 0.00 0.00 0.00 75 920.1
20260507010403 46 0 5.0 0.0 0.00 0.00 0.00 75 920.1
20260507010255 46 90 37.0 0.0 0.00 0.00 0.00 75 920.2
20260507010146 46 45 41.0 0.0 0.00 0.00 0.00 75 920.1
20260507010038 46 0 32.0 0.0 0.00 0.00 0.00 75 920.1
20260507005930 46 315 39.0 0.0 0.00 0.00 0.00 75 920.1
20260507005822 46 45 33.0 0.0 0.00 0.00 0.00 75 920.1
20260507005713 46 315 46.0 0.0 0.00 0.00 0.00 75 920.1
20260507005605 45 45 32.0 0.0 0.00 0.00 0.00 75 920.0
20260507005457 45 315 44.0 0.0 0.00 0.00 0.00 75 920.0
20260507005349 45 45 16.0 0.0 0.00 0.00 0.00 75 920.0
20260507005240 45 0 18.0 0.0 0.00 0.00 0.00 75 920.0
20260507005132 45 0 14.0 0.0 0.00 0.00 0.00 75 920.0
20260507005024 45 315 8.0 0.0 0.00 0.00 0.00 75 920.1
20260507004915 45 45 10.0 0.0 0.00 0.00 0.00 75 920.1
20260507004807 45 225 0.0 0.0 0.00 0.00 0.00 75 920.1
20260507004659 45 315 11.0 0.0 0.00 0.00 0.00 75 920.2
20260507004551 45 0 0.0 0.0 0.00 0.00 0.00 75 920.2
20260507004442 46 315 0.0 0.0 0.00 0.00 0.00 75 920.2
20260507004334 46 270 0.0 0.0 0.00 0.00 0.00 75 920.2
20260507004226 46 0 10.0 0.0 0.00 0.00 0.00 75 920.2
20260507004117 46 0 15.0 0.0 0.00 0.00 0.00 75 920.2
20260507004009 46 0 3.0 0.0 0.00 0.00 0.00 75 920.2
20260507003901 46 0 1.0 0.0 0.00 0.00 0.00 76 920.3
20260507003644 46 315 1.0 0.0 0.00 0.00 0.00 76 920.2
20260507003536 46 0 1.0 0.0 0.00 0.00 0.00 76 920.3
20260507003428 45 315 2.0 0.0 0.00 0.00 0.00 76 920.3
20260507003320 45 0 9.0 0.0 0.00 0.00 0.00 76 920.3
20260507003211 45 45 0.0 0.0 0.00 0.00 0.00 76 920.2
20260507003103 45 315 0.0 0.0 0.00 0.00 0.00 76 920.3
20260507002955 45 0 15.0 0.0 0.00 0.00 0.00 76 920.2
20260507002846 45 0 0.0 0.0 0.00 0.00 0.00 76 920.2
20260507002738 45 315 0.0 0.0 0.00 0.00 0.00 76 920.3
20260507002630 45 315 0.0 0.0 0.00 0.00 0.00 76 920.2
20260507002522 45 315 7.0 0.0 0.00 0.00 0.00 75 920.2
20260507002414 45 315 3.0 0.0 0.00 0.00 0.00 75 920.2
20260507002306 45 315 0.0 0.0 0.00 0.00 0.00 75 920.2
20260507002157 45 0 0.0 0.0 0.00 0.00 0.00 75 920.2
20260507002048 45 315 0.0 0.0 0.00 0.00 0.00 75 920.2
20260507001940 45 315 0.0 0.0 0.00 0.00 0.00 75 920.2
20260507001832 45 315 0.0 0.0 0.00 0.00 0.00 75 920.2
20260507001724 45 315 0.0 0.0 0.00 0.00 0.00 75 920.2
20260507001615 45 315 1.0 0.0 0.00 0.00 0.00 75 920.2
20260507001507 45 0 0.0 0.0 0.00 0.00 0.00 75 920.3
20260507001359 45 315 0.0 0.0 0.00 0.00 0.00 75 920.2
20260507001251 45 315 0.0 0.0 0.00 0.00 0.00 75 920.2
20260507001142 45 315 0.0 0.0 0.00 0.00 0.00 75 920.2
20260507001034 45 315 0.0 0.0 0.00 0.00 0.00 75 920.2
20260507000926 45 315 0.0 0.0 0.00 0.00 0.00 75 920.2
20260507000817 44 315 0.0 0.0 0.00 0.00 0.00 75 920.2
20260507000709 44 315 0.0 0.0 0.00 0.00 0.00 75 920.2
20260507000601 44 315 0.0 0.0 0.00 0.00 0.00 75 920.2
20260507000453 44 315 0.0 0.0 0.00 0.00 0.00 75 920.2
20260507000344 44 0 0.0 0.0 0.00 0.00 0.00 75 920.2
20260507000236 44 0 4.0 0.0 0.00 0.00 0.00 75 920.2
20260507000128 44 0 9.0 0.0 0.00 0.00 0.00 75 920.2
20260507000019 44 0 25.0 0.0 0.00 0.00 0.00 75 920.1
20260506235911 44 0 14.0 0.0 0.00 0.00 0.00 75 920.1
20260506235803 44 0 13.0 0.0 0.00 0.00 0.00 75 920.1
20260506235655 44 0 21.0 0.0 0.00 0.00 0.00 75 920.1
20260506235546 44 0 0.0 0.0 0.00 0.00 0.00 75 920.2
20260506235438 44 315 0.0 0.0 0.00 0.00 0.00 75 920.2
20260506235330 44 90 0.0 0.0 0.00 0.00 0.00 74 920.2
20260506235222 43 90 6.0 0.0 0.00 0.00 0.00 74 920.2
20260506235113 43 0 0.0 0.0 0.00 0.00 0.00 74 920.2
20260506235006 43 45 0.0 0.0 0.00 0.00 0.00 74 920.2
20260506234857 43 315 0.0 0.0 0.00 0.00 0.00 74 920.2
20260506234640 43 270 6.0 0.0 0.00 0.00 0.00 73 920.2
20260506234532 43 270 0.0 0.0 0.00 0.00 0.00 73 920.1
20260506234424 43 270 3.0 0.0 0.00 0.00 0.00 73 920.2
20260506234315 43 270 6.0 0.0 0.00 0.00 0.00 73 920.2
20260506234207 43 270 0.0 0.0 0.00 0.00 0.00 73 920.1
20260506234059 43 315 1.0 0.0 0.00 0.00 0.00 73 920.1
20260506233950 43 315 1.0 0.0 0.00 0.00 0.00 73 920.1
20260506233842 43 315 1.0 0.0 0.00 0.00 0.00 73 920.0
20260506233734 43 270 0.0 0.0 0.00 0.00 0.00 73 920.0
20260506233626 43 90 2.0 0.0 0.00 0.00 0.00 73 920.0
20260506233517 43 315 0.0 0.0 0.00 0.00 0.00 73 920.0
20260506233409 44 270 2.0 0.0 0.00 0.00 0.00 73 920.0
20260506233301 44 270 4.0 0.0 0.00 0.00 0.00 73 920.0
20260506233153 44 270 0.0 0.0 0.00 0.00 0.00 73 919.9
20260506233045 44 135 0.0 0.0 0.00 0.00 0.00 73 920.0
20260506232936 44 315 1.0 0.0 0.00 0.00 0.00 73 920.0
20260506232828 44 0 13.0 0.0 0.00 0.00 0.00 72 920.0
20260506232719 44 315 23.0 0.0 0.00 0.00 0.00 72 920.0
20260506232611 44 0 20.0 0.0 0.00 0.00 0.00 72 920.0
20260506232503 44 0 10.0 0.0 0.00 0.00 0.00 72 920.0
20260506232355 44 45 10.0 0.0 0.00 0.00 0.00 72 920.0
20260506232246 44 315 0.0 0.0 0.00 0.00 0.00 72 920.0
20260506232138 44 315 0.0 0.0 0.00 0.00 0.00 72 920.1
20260506232030 44 315 0.0 0.0 0.00 0.00 0.00 72 920.1
20260506231922 44 315 0.0 0.0 0.00 0.00 0.00 72 920.1
20260506231813 44 270 0.0 0.0 0.00 0.00 0.00 72 920.1
20260506231705 44 0 0.0 0.0 0.00 0.00 0.00 72 920.1
20260506231557 44 45 4.0 0.0 0.00 0.00 0.00 72 920.1
20260506231448 45 315 10.0 0.0 0.00 0.00 0.00 72 920.1
20260506231340 45 315 0.0 0.0 0.00 0.00 0.00 72 920.2
20260506231232 45 315 0.0 0.0 0.00 0.00 0.00 72 920.2
20260506231015 45 315 0.0 0.0 0.00 0.00 0.00 72 920.2
20260506230907 45 315 1.0 0.0 0.00 0.00 0.00 72 920.2
20260506230759 46 315 1.0 0.0 0.00 0.00 0.00 73 920.2
20260506230651 46 270 0.0 0.0 0.00 0.00 0.00 73 920.2
20260506230542 46 315 0.0 0.0 0.00 0.00 0.00 73 920.3
20260506230434 46 315 8.0 0.0 0.00 0.00 0.00 73 920.3
20260506230326 46 315 15.0 0.0 0.00 0.00 0.00 73 920.3
20260506230217 46 0 0.0 0.0 0.00 0.00 0.00 73 920.2
20260506230109 47 315 4.0 0.0 0.00 0.00 0.00 73 920.3
20260506230001 47 315 3.0 0.0 0.00 0.00 0.00 73 920.3
20260506225853 47 315 10.0 0.0 0.00 0.00 0.00 74 920.3
20260506225744 47 315 8.0 0.0 0.00 0.00 0.00 74 920.3
20260506225636 47 0 26.0 0.0 0.00 0.00 0.00 74 920.2
20260506225528 47 45 11.0 0.0 0.00 0.00 0.00 74 920.2
20260506225420 47 45 15.0 0.0 0.00 0.00 0.00 74 920.2
20260506225311 47 45 12.0 0.0 0.00 0.00 0.00 74 920.2
20260506225203 47 0 20.0 0.0 0.00 0.00 0.00 74 920.2
20260506225055 48 0 10.0 0.0 0.00 0.00 0.00 74 920.2
20260506224946 48 315 0.0 0.0 0.00 0.00 0.00 74 920.1
20260506224838 48 315 8.0 0.0 0.00 0.00 0.00 74 920.2
20260506224730 48 315 7.0 0.0 0.00 0.00 0.00 74 920.2
20260506224622 48 0 2.0 0.0 0.00 0.00 0.00 75 920.2
20260506224513 48 180 12.0 0.0 0.00 0.00 0.00 75 920.2
20260506224405 48 45 0.0 0.0 0.00 0.00 0.00 75 920.2
20260506224257 48 0 16.0 0.0 0.00 0.00 0.00 75 920.2
20260506224148 48 45 2.0 0.0 0.00 0.00 0.00 75 920.1
20260506224040 49 315 10.0 0.0 0.00 0.00 0.00 75 920.2
20260506223932 49 0 2.0 0.0 0.00 0.00 0.00 75 920.2
20260506223824 49 0 2.0 0.0 0.00 0.00 0.00 75 920.2
20260506223607 49 0 17.0 0.0 0.00 0.00 0.00 75 920.2
20260506223459 49 90 14.0 0.0 0.00 0.00 0.00 75 920.2
20260506223350 49 45 22.0 0.0 0.00 0.00 0.00 76 920.2
20260506223242 49 45 7.0 0.0 0.00 0.00 0.00 76 920.2
20260506223134 49 0 7.0 0.0 0.00 0.00 0.00 76 920.2
20260506223026 49 315 10.0 0.0 0.00 0.00 0.00 76 920.1
20260506222917 49 135 19.0 0.0 0.00 0.00 0.00 76 920.2
20260506222809 49 180 29.0 0.0 0.00 0.00 0.00 76 920.1
20260506222701 49 225 0.0 0.0 0.00 0.00 0.00 76 920.1
20260506222553 49 270 9.0 0.0 0.00 0.00 0.00 76 920.1
20260506222444 49 315 2.0 0.0 0.00 0.00 0.00 76 920.1
20260506222336 49 45 1.0 0.0 0.00 0.00 0.00 76 920.1
20260506222228 49 90 6.0 0.0 0.00 0.00 0.00 76 920.1
20260506222120 49 0 11.0 0.0 0.00 0.00 0.00 76 920.1
20260506222011 49 180 9.0 0.0 0.00 0.00 0.00 75 920.1
20260506221903 49 90 9.0 0.0 0.00 0.00 0.00 75 920.1
20260506221755 49 135 17.0 0.0 0.00 0.00 0.00 75 920.0
20260506221646 49 135 21.0 0.0 0.00 0.00 0.00 75 920.0
20260506221538 49 315 26.0 0.0 0.00 0.00 0.00 75 920.0
20260506221430 49 135 9.0 0.0 0.00 0.00 0.00 75 920.0
20260506221322 49 45 38.0 0.0 0.00 0.00 0.00 75 920.0
20260506221213 49 45 14.0 0.0 0.00 0.00 0.00 75 919.9
20260506221105 50 45 41.0 0.0 0.00 0.00 0.00 75 920.0
20260506220957 50 45 20.0 0.0 0.00 0.00 0.00 75 920.0
20260506220848 50 0 56.0 0.0 0.00 0.00 0.00 75 919.9
20260506220740 50 0 26.0 0.0 0.00 0.00 0.00 76 919.9
20260506220632 50 45 25.0 0.0 0.00 0.00 0.00 76 919.9
20260506220524 50 0 16.0 0.0 0.00 0.00 0.00 76 919.9
20260506220415 50 0 11.0 0.0 0.00 0.00 0.00 76 919.9
20260506220307 50 0 20.0 0.0 0.00 0.00 0.00 76 919.9
20260506220200 50 0 40.0 0.0 0.00 0.00 0.00 76 919.8
20260506220050 50 45 7.0 0.0 0.00 0.00 0.00 76 919.8
20260506215942 50 0 56.0 0.0 0.00 0.00 0.00 76 919.9
20260506215834 50 135 24.0 0.0 0.00 0.00 0.00 76 919.8
20260506215726 50 315 13.0 0.0 0.00 0.00 0.00 76 919.8
20260506215617 50 45 27.0 0.0 0.00 0.00 0.00 76 919.8
20260506215509 50 45 52.0 0.0 0.00 0.00 0.00 76 919.8
20260506215401 50 315 33.0 0.0 0.00 0.00 0.00 76 919.8
20260506215253 50 315 16.0 0.0 0.00 0.00 0.00 75 919.8
20260506215144 50 315 39.0 0.0 0.00 0.00 0.00 75 919.8
20260506215036 50 0 13.0 0.0 0.00 0.00 0.00 75 919.7
20260506214928 50 315 75.0 0.0 0.00 0.00 0.00 75 919.7
20260506214819 50 0 56.0 0.0 0.00 0.00 0.00 75 919.7
20260506214711 50 45 35.0 0.0 0.00 0.00 0.00 75 919.6
20260506214603 50 45 48.0 0.0 0.00 0.00 0.00 75 919.7
20260506214455 50 0 45.0 0.0 0.00 0.00 0.00 76 919.6
20260506214346 50 0 28.0 0.0 0.00 0.00 0.00 76 919.7
20260506214238 50 45 10.0 0.0 0.00 0.00 0.00 75 919.7
20260506214130 51 45 41.0 0.0 0.00 0.00 0.00 76 919.7
20260506214021 51 315 13.0 0.0 0.00 0.00 0.00 76 919.7
20260506213913 51 315 20.0 0.0 0.00 0.00 0.00 76 919.7
20260506213805 51 45 17.0 0.0 0.00 0.00 0.00 76 919.6
20260506213657 51 90 27.0 0.0 0.00 0.00 0.00 76 919.6
20260506213548 51 0 5.0 0.0 0.00 0.00 0.00 76 919.6
20260506213440 51 45 14.0 0.0 0.00 0.00 0.00 76 919.7
20260506213332 51 45 13.0 0.0 0.00 0.00 0.00 76 919.7
20260506213224 51 45 10.0 0.0 0.00 0.00 0.00 76 919.6
20260506213115 51 0 32.0 0.0 0.00 0.00 0.00 76 919.7
20260506213007 51 0 18.0 0.0 0.00 0.00 0.00 76 919.7
20260506212900 51 315 9.0 0.0 0.00 0.00 0.00 76 919.7
20260506212750 51 45 9.0 0.0 0.00 0.00 0.00 76 919.7
20260506212642 51 45 3.0 0.0 0.00 0.00 0.00 76 919.6
20260506212534 51 0 28.0 0.0 0.00 0.00 0.00 76 919.7
20260506212426 51 90 28.0 0.0 0.00 0.00 0.00 76 919.7
20260506212317 51 315 21.0 0.0 0.00 0.00 0.00 76 919.6
20260506212209 51 45 30.0 0.0 0.00 0.00 0.00 76 919.6
20260506212101 51 45 32.0 0.0 0.00 0.00 0.00 76 919.6
20260506211953 51 45 46.0 0.0 0.00 0.00 0.00 76 919.6
20260506211844 51 0 43.0 0.0 0.00 0.00 0.00 76 919.6
20260506211736 51 45 35.0 0.0 0.00 0.00 0.00 76 919.6
20260506211628 51 0 8.0 0.0 0.00 0.00 0.00 76 919.6
20260506211519 51 45 11.0 0.0 0.00 0.00 0.00 76 919.6
20260506211411 51 315 0.0 0.0 0.00 0.00 0.00 75 919.7
20260506211303 51 45 8.0 0.0 0.00 0.00 0.00 75 919.6
20260506211155 51 0 16.0 0.0 0.00 0.00 0.00 75 919.6
20260506211046 51 0 24.0 0.0 0.00 0.00 0.00 75 919.5
20260506210938 51 90 36.0 0.0 0.00 0.00 0.00 75 919.5
20260506210830 51 0 44.0 0.0 0.00 0.00 0.00 75 919.5
20260506210722 51 0 46.0 0.0 0.00 0.00 0.00 76 919.4
20260506210613 51 0 31.0 0.0 0.00 0.00 0.00 76 919.4
20260506210505 51 45 54.0 0.0 0.00 0.00 0.00 76 919.4
20260506210357 51 0 57.0 0.0 0.00 0.00 0.00 76 919.4
20260506210248 51 315 10.0 0.0 0.00 0.00 0.00 75 919.4
20260506210140 51 90 56.0 0.0 0.00 0.00 0.00 75 919.5
20260506210032 51 315 30.0 0.0 0.00 0.00 0.00 75 919.4
20260506205924 51 45 4.0 0.0 0.00 0.00 0.00 75 919.4
20260506205815 51 315 17.0 0.0 0.00 0.00 0.00 75 919.4
20260506205707 51 0 17.0 0.0 0.00 0.00 0.00 75 919.4
20260506205559 51 315 13.0 0.0 0.00 0.00 0.00 75 919.4
20260506205450 51 45 41.0 0.0 0.00 0.00 0.00 75 919.3
20260506205342 51 45 24.0 0.0 0.00 0.00 0.00 75 919.3
20260506205234 51 315 3.0 0.0 0.00 0.00 0.00 75 919.3
20260506205126 51 315 0.0 0.0 0.00 0.00 0.00 75 919.3
20260506205018 51 270 26.0 0.0 0.00 0.00 0.00 75 919.3
20260506204909 51 0 49.0 0.0 0.00 0.00 0.00 75 919.3
20260506204801 51 90 15.0 0.0 0.00 0.00 0.00 75 919.2
20260506204652 51 270 25.0 0.0 0.00 0.00 0.00 75 919.2
20260506204544 51 45 50.0 0.0 0.00 0.00 0.00 75 919.2
20260506204436 51 45 15.0 0.0 0.00 0.00 0.00 75 919.2
20260506204328 51 0 45.0 0.0 0.00 0.00 0.00 75 919.2
20260506204219 51 45 54.0 0.0 0.00 0.00 0.00 75 919.1
20260506204111 51 0 22.0 0.0 0.00 0.00 0.00 75 919.2
20260506204003 51 180 22.0 0.0 0.00 0.00 0.00 75 919.2
20260506203855 51 45 30.0 0.0 0.00 0.00 0.00 75 919.1
20260506203746 51 45 41.0 0.0 0.00 0.00 0.00 74 919.1
20260506203638 51 270 46.0 0.0 0.00 0.00 0.00 74 919.1
20260506203530 51 0 58.0 0.0 0.00 0.00 0.00 74 919.1
20260506203421 51 45 8.0 0.0 0.00 0.00 0.00 74 919.1
20260506203313 51 315 31.0 0.0 0.00 0.00 0.00 74 919.1
20260506203205 51 45 7.0 0.0 0.00 0.00 0.00 74 919.1
20260506203057 51 0 41.0 0.0 0.00 0.00 0.00 74 919.0
20260506202948 51 0 43.0 0.0 0.00 0.00 0.00 74 919.0
20260506202840 52 45 38.0 0.0 0.00 0.00 0.00 74 919.0
20260506202732 52 45 10.0 0.0 0.00 0.00 0.00 74 918.9
20260506202624 52 180 19.0 0.0 0.00 0.00 0.00 74 919.0
20260506202515 52 0 2.0 0.0 0.00 0.00 0.00 74 918.9
20260506202407 52 45 19.0 0.0 0.00 0.00 0.00 74 919.0
20260506202259 52 315 2.0 0.0 0.00 0.00 0.00 74 918.9
20260506202150 52 90 21.0 0.0 0.00 0.00 0.00 74 918.9
20260506202042 52 0 18.0 0.0 0.00 0.00 0.00 74 918.9
20260506201934 52 45 72.0 0.0 0.00 0.00 0.00 74 918.9
20260506201826 52 0 77.0 0.0 0.00 0.00 0.00 74 918.9
20260506201717 52 45 30.0 0.0 0.00 0.00 0.00 74 918.8
20260506201609 53 315 32.0 0.0 0.00 0.00 0.00 74 918.9
20260506201501 53 45 14.0 0.0 0.00 0.00 0.00 74 918.9
20260506201352 53 90 79.0 0.0 0.00 0.00 0.00 74 918.9
20260506201244 53 0 63.0 0.0 0.00 0.00 0.00 75 918.8
20260506201136 53 0 38.0 0.0 0.00 0.00 0.00 75 918.8
20260506201028 53 315 28.0 0.0 0.00 0.00 0.00 75 918.8
20260506200919 53 45 75.0 0.0 0.00 0.00 0.00 75 918.8
20260506200811 53 0 56.0 0.0 0.00 0.00 0.00 75 918.7
20260506200703 53 0 33.0 0.0 0.00 0.00 0.00 75 918.8
20260506200555 53 0 54.0 0.0 0.00 0.00 0.00 75 918.7
20260506200446 53 315 21.0 0.0 0.00 0.00 0.00 75 918.7
20260506200338 53 45 44.0 0.0 0.00 0.00 0.00 75 918.7
20260506200230 53 45 51.0 0.0 0.00 0.00 0.00 75 918.7
20260506200121 53 0 18.0 0.0 0.00 0.00 0.00 75 918.7
20260506200013 53 90 58.0 0.0 0.00 0.00 0.00 75 918.7
20260506195905 54 315 16.0 0.0 0.00 0.00 0.00 75 918.7
20260506195757 54 315 26.0 0.0 0.00 0.00 0.00 75 918.8
20260506195649 54 0 28.0 0.0 0.00 0.00 0.00 75 918.7
20260506195540 54 90 9.0 0.0 0.00 0.00 0.00 75 918.7
20260506195432 54 135 7.0 0.0 0.00 0.00 0.00 75 918.7
20260506195323 54 180 24.0 0.0 0.00 0.00 0.00 75 918.7
20260506195215 54 315 13.0 0.0 0.00 0.00 0.00 75 918.7
20260506195107 54 270 4.0 0.0 0.00 0.00 0.00 75 918.7
20260506194959 54 0 15.0 0.0 0.00 0.00 0.00 75 918.7
20260506194850 54 315 21.0 0.0 0.00 0.00 0.00 75 918.7
20260506194742 54 315 23.0 0.0 0.00 0.00 0.00 75 918.7
20260506194634 54 0 4.0 0.0 0.00 0.00 0.00 75 918.6
20260506194526 54 135 21.0 0.0 0.00 0.00 0.00 75 918.7
20260506194417 54 315 10.0 0.0 0.00 0.00 0.00 75 918.7
20260506194309 54 90 7.0 0.0 0.00 0.00 0.00 74 918.6
20260506194201 54 45 0.0 0.0 0.00 0.00 0.00 74 918.7
20260506194052 54 90 1.0 0.0 0.00 0.00 0.00 74 918.6
20260506193944 54 315 5.0 0.0 0.00 0.00 0.00 74 918.7
20260506193836 54 315 8.0 0.0 0.00 0.00 0.00 74 918.6
20260506193728 55 45 13.0 0.0 0.00 0.00 0.00 74 918.6
20260506193619 55 90 37.0 0.0 0.00 0.00 0.00 74 918.6
20260506193511 55 315 24.0 0.0 0.00 0.00 0.00 74 918.5
20260506193403 55 180 21.0 0.0 0.00 0.00 0.00 74 918.5
20260506193254 55 135 5.0 0.0 0.00 0.00 0.00 74 918.6
20260506193146 55 135 6.0 0.0 0.00 0.00 0.00 74 918.5
20260506193038 55 180 11.0 0.0 0.00 0.00 0.00 74 918.6
20260506192930 55 90 0.0 0.0 0.00 0.00 0.00 74 918.6
20260506192821 55 90 13.0 0.0 0.00 0.00 0.00 74 918.6
20260506192713 55 90 0.0 0.0 0.00 0.00 0.00 75 918.5
20260506192605 55 45 11.0 0.0 0.00 0.00 0.00 75 918.5
20260506192457 55 180 24.0 0.0 0.00 0.00 0.00 75 918.5
20260506192348 56 315 8.0 0.0 0.00 0.00 0.00 75 918.4
20260506192240 56 45 7.0 0.0 0.00 0.00 0.00 75 918.4
20260506192132 56 315 15.0 0.0 0.00 0.00 0.00 75 918.4
20260506192023 56 180 7.0 0.0 0.00 0.00 0.00 75 918.4
20260506191915 56 315 8.0 0.0 0.00 0.00 0.00 75 918.3
20260506191807 56 180 49.0 0.0 0.00 0.00 0.00 75 918.4
20260506191659 56 180 35.0 0.0 0.00 0.00 0.00 75 918.3
20260506191550 56 180 13.0 0.0 0.00 0.00 0.00 75 918.3
20260506191442 56 135 7.0 0.0 0.00 0.00 0.00 75 918.3
20260506191334 56 270 8.0 0.0 0.00 0.00 0.00 75 918.2
20260506191225 56 180 15.0 0.0 0.00 0.00 0.00 75 918.2
20260506191117 56 135 4.0 0.0 0.00 0.00 0.00 75 918.2
20260506191009 56 135 11.0 0.0 0.00 0.00 0.00 75 918.2
20260506190901 56 135 22.0 0.0 0.00 0.00 0.00 75 918.2
20260506190752 56 135 20.0 0.0 0.00 0.00 0.00 75 918.1
20260506190644 56 90 18.0 0.0 0.00 0.00 0.00 75 918.1
20260506190536 56 0 23.0 0.0 0.00 0.00 0.00 75 918.0
20260506190428 56 90 20.0 0.0 0.00 0.00 0.00 75 918.0
20260506190319 57 45 15.0 0.0 0.00 0.00 0.00 75 918.0
20260506190211 57 135 23.0 0.0 0.00 0.00 0.00 75 918.0
20260506185954 57 315 15.0 0.0 0.00 0.00 0.00 75 918.0
20260506185846 57 270 22.0 0.0 0.00 0.00 0.00 75 918.0
20260506185738 57 90 17.0 0.0 0.00 0.00 0.00 75 918.0
20260506185630 57 315 35.0 0.0 0.00 0.00 0.00 75 918.0
20260506185521 57 0 19.0 0.0 0.00 0.00 0.00 75 918.0
20260506185307 57 270 0.0 0.0 0.00 0.00 0.00 75 917.9
20260506185157 57 315 1.0 0.0 0.00 0.00 0.00 75 917.9
20260506185048 57 315 15.0 0.0 0.00 0.00 0.00 75 917.8
20260506184940 57 0 13.0 0.0 0.00 0.00 0.00 75 917.8
20260506184832 57 0 28.0 0.0 0.00 0.00 0.00 74 917.7
20260506184723 57 90 3.0 0.0 0.00 0.00 0.00 74 917.7
20260506184507 57 270 2.0 0.0 0.00 0.00 0.00 74 917.7
20260506184359 57 315 5.0 0.0 0.00 0.00 0.00 74 917.6
20260506184250 57 315 5.0 0.0 0.00 0.00 0.00 74 917.6
20260506184142 57 315 1.0 0.0 0.00 0.00 0.00 74 917.5
20260506184034 57 315 10.0 0.0 0.00 0.00 0.00 74 917.5
20260506183926 57 315 11.0 0.0 0.00 0.00 0.00 74 917.5
20260506183817 57 0 1.0 0.0 0.00 0.00 0.00 74 917.5
20260506183709 57 270 17.0 0.0 0.00 0.00 0.00 74 917.4
20260506183601 57 90 9.0 0.0 0.00 0.00 0.00 74 917.5
20260506183452 58 315 13.0 0.0 0.00 0.00 0.00 74 917.4
20260506183344 58 270 27.0 0.0 0.00 0.00 0.00 74 917.4
20260506183236 58 180 8.0 0.0 0.00 0.00 0.00 74 917.4
20260506183128 58 270 7.0 0.0 0.00 0.00 0.00 74 917.3
20260506183020 58 270 16.0 0.0 0.00 0.00 0.00 74 917.3
20260506182911 58 225 10.0 0.0 0.00 0.00 0.00 74 917.3
20260506182803 58 180 14.0 0.0 0.00 0.00 0.00 74 917.3
20260506182654 58 180 2.0 0.0 0.00 0.00 0.00 74 917.2
20260506182546 58 180 7.0 0.0 0.00 0.00 0.00 74 917.2
20260506182438 58 180 10.0 0.0 0.00 0.00 0.00 74 917.2
20260506182329 58 180 13.0 0.0 0.00 0.00 0.00 74 917.2
20260506182221 59 135 8.0 0.0 0.00 0.00 0.00 74 917.2
20260506182112 59 135 15.0 0.0 0.00 0.00 0.00 74 917.2
20260506181856 59 90 0.0 0.0 0.00 0.00 0.00 74 917.2
20260506181747 59 0 0.0 0.0 0.00 0.00 0.00 74 917.2
20260506181640 59 225 3.0 0.0 0.00 0.00 0.00 74 917.2
20260506181530 59 135 9.0 0.0 0.00 0.00 0.00 74 917.1
20260506181422 59 225 23.0 0.0 0.00 0.00 0.00 74 917.1
20260506181313 59 225 20.0 0.0 0.00 0.00 0.00 74 917.0
20260506181205 59 0 6.0 0.0 0.00 0.00 0.00 73 917.0
20260506181056 59 225 0.0 0.0 0.00 0.00 0.00 73 917.0
20260506180949 59 45 0.0 0.0 0.00 0.00 0.00 73 917.0
20260506180840 60 0 12.0 0.0 0.00 0.00 0.00 73 916.9
20260506180731 60 90 1.0 0.0 0.00 0.00 0.00 73 916.9
20260506180623 60 0 12.0 0.0 0.00 0.00 0.00 73 916.9
20260506180514 60 315 7.0 0.0 0.00 0.00 0.00 73 916.9
20260506180406 60 315 0.0 0.0 0.00 0.00 0.00 73 916.8
20260506180257 60 0 0.0 0.0 0.00 0.00 0.00 73 916.8
20260506180149 60 135 32.0 0.0 0.00 0.00 0.00 73 916.8
20260506180040 60 225 39.0 0.0 0.00 0.00 0.00 73 916.8
20260506175932 61 180 38.0 0.0 0.00 0.00 0.00 73 916.7
20260506175824 61 180 42.0 0.0 0.00 0.00 0.00 73 916.7
20260506175715 61 225 32.0 0.0 0.00 0.00 0.00 73 916.7
20260506175607 61 135 23.0 0.0 0.00 0.00 0.00 73 916.6
20260506175458 61 90 19.0 0.0 0.00 0.00 0.00 73 916.5
20260506175350 61 90 12.0 0.0 0.00 0.00 0.00 73 916.5
20260506175241 61 90 27.0 0.0 0.00 0.00 0.00 73 916.4
20260506175133 61 180 40.0 0.0 0.00 0.00 0.00 73 916.5
20260506175025 62 135 20.0 0.0 0.00 0.00 0.00 73 916.4
20260506174916 62 135 1.0 0.0 0.00 0.00 0.00 73 916.4
20260506174808 62 315 19.0 0.0 0.00 0.00 0.00 73 916.4
20260506174659 62 135 8.0 0.0 0.00 0.00 0.00 73 916.3
20260506174551 62 225 32.0 0.0 0.00 0.00 0.00 73 916.3
20260506174442 62 180 23.0 0.0 0.00 0.00 0.00 73 916.2
20260506174334 62 180 32.0 0.0 0.00 0.00 0.00 73 916.2
20260506174225 62 180 22.0 0.0 0.00 0.00 0.00 73 916.2
20260506174117 62 135 1.0 0.0 0.00 0.00 0.00 73 916.1
20260506174009 62 135 34.0 0.0 0.00 0.00 0.00 73 916.0
20260506173900 62 180 21.0 0.0 0.00 0.00 0.00 73 916.0
20260506173752 63 180 0.0 0.0 0.00 0.00 0.00 73 915.9
20260506173643 63 90 3.0 0.0 0.00 0.00 0.00 73 915.9
20260506173535 63 45 8.0 0.0 0.00 0.00 0.00 73 915.8
20260506173426 63 180 17.0 0.0 0.00 0.00 0.00 73 915.9
20260506173318 63 180 17.0 0.0 0.00 0.00 0.00 73 915.8
20260506173209 63 225 12.0 0.0 0.00 0.00 0.00 73 915.8
20260506173101 63 180 7.0 0.0 0.00 0.00 0.00 73 915.8
20260506172953 63 270 13.0 0.0 0.00 0.00 0.00 73 915.8
20260506172844 63 135 3.0 0.0 0.00 0.00 0.00 73 915.8
20260506172736 63 180 28.0 0.0 0.00 0.00 0.00 73 915.8
20260506172627 63 225 40.0 0.0 0.00 0.00 0.00 73 915.8
20260506172519 64 90 24.0 0.0 0.00 0.00 0.00 73 915.8
20260506172410 64 90 2.0 0.0 0.00 0.00 0.00 73 915.8
20260506172306 64 45 12.0 0.0 0.00 0.00 0.00 73 915.7
20260506172153 64 90 2.0 0.0 0.00 0.00 0.00 73 915.6
20260506172045 64 180 4.0 0.0 0.00 0.00 0.00 72 915.6
20260506171937 64 0 19.0 0.0 0.00 0.00 0.00 72 915.5
20260506171828 64 45 6.0 0.0 0.00 0.00 0.00 72 915.5
20260506171720 64 45 6.0 0.0 0.00 0.00 0.00 72 915.5
20260506171611 64 0 4.0 0.0 0.00 0.00 0.00 72 915.4
20260506171503 65 135 42.0 0.0 0.00 0.00 0.00 72 915.5
20260506171354 65 90 33.0 0.0 0.00 0.00 0.00 72 915.5
20260506171246 65 135 31.0 0.0 0.00 0.00 0.00 72 915.5
20260506171138 65 135 41.0 0.0 0.00 0.00 0.00 72 915.5
20260506171029 65 135 54.0 0.0 0.00 0.00 0.00 72 915.4
20260506170921 65 135 25.0 0.0 0.00 0.00 0.00 72 915.4
20260506170812 65 135 20.0 0.0 0.00 0.00 0.00 72 915.4
20260506170704 65 45 39.0 0.0 0.00 0.00 0.00 72 915.4
20260506170555 65 135 52.0 0.0 0.00 0.00 0.00 72 915.4
20260506170447 65 90 87.0 0.0 0.00 0.00 0.00 72 915.4
20260506170338 65 180 135.0 0.0 0.00 0.00 0.00 72 915.3
20260506170230 65 180 36.0 0.0 0.00 0.00 0.00 72 915.4
20260506170122 65 90 62.0 0.0 0.00 0.00 0.00 72 915.3
20260506170013 65 180 16.0 0.0 0.00 0.00 0.00 72 915.3
20260506165905 65 90 64.0 0.0 0.00 0.00 0.00 71 915.2
20260506165756 66 90 58.0 0.0 0.00 0.00 0.00 71 915.3
20260506165648 66 90 103.0 0.0 0.00 0.00 0.00 71 915.2
20260506165539 66 135 26.0 0.0 0.00 0.00 0.00 71 915.3
20260506165431 66 225 40.0 0.0 0.00 0.00 0.00 71 915.3
20260506165322 66 90 15.0 0.0 0.00 0.00 0.00 71 915.2
20260506165214 66 90 21.0 0.0 0.00 0.00 0.00 71 915.1
20260506165106 66 225 16.0 0.0 0.00 0.00 0.00 71 915.2
20260506164957 66 0 63.0 0.0 0.00 0.00 0.00 71 915.2
20260506164849 66 180 23.0 0.0 0.00 0.00 0.00 71 915.3
20260506164740 66 180 49.0 0.0 0.00 0.00 0.00 71 915.2
20260506164632 67 225 100.0 0.0 0.00 0.00 0.00 71 915.2
20260506164523 67 135 37.0 0.0 0.00 0.00 0.00 71 915.2
20260506164415 67 90 13.0 0.0 0.00 0.00 0.00 71 915.0
20260506164307 67 90 32.0 0.0 0.00 0.00 0.00 71 915.0
20260506164158 67 180 82.0 0.0 0.00 0.00 0.00 71 915.0
20260506164050 67 135 12.0 0.0 0.00 0.00 0.00 71 915.2
20260506163941 68 135 53.0 0.0 0.00 0.00 0.00 71 915.1
20260506163833 68 90 13.0 0.0 0.00 0.00 0.00 70 915.1
20260506163724 68 315 21.0 0.0 0.00 0.00 0.00 70 915.0
20260506163616 68 90 16.0 0.0 0.00 0.00 0.00 70 915.0
20260506163508 68 135 19.0 0.0 0.00 0.00 0.00 70 915.0
20260506163359 68 270 88.0 0.0 0.00 0.00 0.00 70 914.9
20260506163251 69 180 7.0 0.0 0.00 0.00 0.00 70 914.9
20260506163142 69 90 17.0 0.0 0.00 0.00 0.00 70 915.0
20260506163034 69 90 13.0 0.0 0.00 0.00 0.00 70 914.9
20260506162925 69 225 51.0 0.0 0.00 0.00 0.00 69 914.9
20260506162817 69 135 23.0 0.0 0.00 0.00 0.00 69 914.9
20260506162708 70 90 72.0 0.0 0.00 0.00 0.00 69 914.9
20260506162600 70 135 12.0 0.0 0.00 0.00 0.00 69 914.9
20260506162451 70 90 35.0 0.0 0.00 0.00 0.00 69 914.8
20260506162343 70 135 23.0 0.0 0.00 0.00 0.00 69 914.9
20260506162235 71 180 36.0 0.0 0.00 0.00 0.00 69 914.8
20260506162126 71 225 57.0 0.0 0.00 0.00 0.00 69 914.8
20260506162018 71 90 78.0 0.0 0.00 0.00 0.00 69 914.8
20260506161909 71 135 51.0 0.0 0.00 0.00 0.00 69 914.7
20260506161801 71 180 46.0 0.0 0.00 0.00 0.00 69 914.8
20260506161652 71 225 34.0 0.0 0.00 0.00 0.00 69 914.7
20260506161544 71 90 34.0 0.0 0.00 0.00 0.00 69 914.7
20260506161436 71 225 48.0 0.0 0.00 0.00 0.00 69 914.8
20260506161327 71 225 38.0 0.0 0.00 0.00 0.00 70 914.7
20260506161219 71 180 46.0 0.0 0.00 0.00 0.00 70 914.7
20260506161110 71 135 17.0 0.0 0.00 0.00 0.00 70 914.7
20260506161002 71 90 28.0 0.0 0.00 0.00 0.00 70 914.7
20260506160853 70 180 21.0 0.0 0.00 0.00 0.00 70 914.7
20260506160745 70 180 52.0 0.0 0.00 0.00 0.00 70 914.6
20260506160636 70 225 28.0 0.0 0.00 0.00 0.00 70 914.7
20260506160528 70 90 16.0 0.0 0.00 0.00 0.00 70 914.7
20260506160420 70 180 31.0 0.0 0.00 0.00 0.00 70 914.7
20260506160311 70 135 31.0 0.0 0.00 0.00 0.00 70 914.7
20260506160203 70 225 32.0 0.0 0.00 0.00 0.00 70 914.7
20260506160054 70 180 31.0 0.0 0.00 0.00 0.00 69 914.7
20260506155946 71 90 43.0 0.0 0.00 0.00 0.00 69 914.7
20260506155837 71 180 29.0 0.0 0.00 0.00 0.00 69 914.6
20260506155729 71 90 32.0 0.0 0.00 0.00 0.00 69 914.6
20260506155620 71 180 26.0 0.0 0.00 0.00 0.00 69 914.7
20260506155512 71 180 28.0 0.0 0.00 0.00 0.00 69 914.7
20260506155404 71 135 43.0 0.0 0.00 0.00 0.00 69 914.7
20260506155147 71 180 39.0 0.0 0.00 0.00 0.00 68 914.6
20260506155038 72 180 28.0 0.0 0.00 0.00 0.00 68 914.6
20260506154930 72 180 33.0 0.0 0.00 0.00 0.00 68 914.6
20260506154821 72 225 84.0 0.0 0.00 0.00 0.00 68 914.6
20260506154713 72 180 57.0 0.0 0.00 0.00 0.00 67 914.6
20260506154605 72 180 59.0 0.0 0.00 0.00 0.00 67 914.5
20260506154456 73 90 65.0 0.0 0.00 0.00 0.00 67 914.5
20260506154348 73 135 28.0 0.0 0.00 0.00 0.00 67 914.5
20260506154239 73 90 21.0 0.0 0.00 0.00 0.00 67 914.5
20260506154131 74 90 12.0 0.0 0.00 0.00 0.00 66 914.5
20260506154023 74 180 57.0 0.0 0.00 0.00 0.00 66 914.5
20260506153914 74 180 40.0 0.0 0.00 0.00 0.00 66 914.5
20260506153805 75 225 36.0 0.0 0.00 0.00 0.00 65 914.4
20260506153657 75 225 67.0 0.0 0.00 0.00 0.00 65 914.4
20260506153549 75 225 32.0 0.0 0.00 0.00 0.00 65 914.4
20260506153440 76 270 50.0 0.0 0.00 0.00 0.00 65 914.4
20260506153332 76 135 46.0 0.0 0.00 0.00 0.00 64 914.5
20260506153223 76 180 28.0 0.0 0.00 0.00 0.00 64 914.5
20260506153115 77 225 47.0 0.0 0.00 0.00 0.00 64 914.4
20260506153006 77 180 42.0 0.0 0.00 0.00 0.00 64 914.3
20260506152858 77 180 69.0 0.0 0.00 0.00 0.00 64 914.4
20260506152749 78 90 52.0 0.0 0.00 0.00 0.00 63 914.2
20260506152641 78 180 53.0 0.0 0.00 0.00 0.00 63 914.4
20260506152533 79 180 59.0 0.0 0.00 0.00 0.00 63 914.3
20260506152424 79 225 16.0 0.0 0.00 0.00 0.00 62 914.2
20260506152316 80 90 73.0 0.0 0.00 0.00 0.00 62 914.2
20260506152207 80 135 66.0 0.0 0.00 0.00 0.00 62 914.2
20260506152059 80 180 83.0 0.0 0.00 0.00 0.00 62 914.2
20260506151950 80 225 102.0 0.0 0.00 0.00 0.00 62 914.1
20260506151842 80 180 53.0 0.0 0.00 0.00 0.00 62 914.2
20260506151734 80 180 55.0 0.0 0.00 0.00 0.00 62 914.2
20260506151625 80 225 49.0 0.0 0.00 0.00 0.00 62 914.3
20260506151517 79 90 64.0 0.0 0.00 0.00 0.00 64 914.3
20260506151408 76 180 44.0 0.0 0.00 0.00 0.00 65 914.3
20260506151300 76 90 50.0 0.0 0.00 0.00 0.00 66 914.2
20260506151151 76 90 41.0 0.0 0.00 0.00 0.00 66 914.2
20260506151043 76 90 40.0 0.0 0.00 0.00 0.00 66 914.2
20260506150934 76 180 49.0 0.0 0.00 0.00 0.00 66 914.3
20260506150826 76 180 25.0 0.0 0.00 0.00 0.00 66 914.2
20260506150718 76 135 2.0 0.0 0.00 0.00 0.00 66 914.1
20260506150609 76 180 4.0 0.0 0.00 0.00 0.00 66 914.3
20260506150501 76 270 13.0 0.0 0.00 0.00 0.00 66 914.2
20260506150352 76 225 6.0 0.0 0.00 0.00 0.00 65 914.2
20260506150244 76 270 23.0 0.0 0.00 0.00 0.00 65 914.2
20260506150136 76 225 37.0 0.0 0.00 0.00 0.00 65 914.2
20260506150027 76 135 39.0 0.0 0.00 0.00 0.00 65 914.3
20260506145918 76 135 46.0 0.0 0.00 0.00 0.00 65 914.4
20260506145810 76 90 46.0 0.0 0.00 0.00 0.00 65 914.2
20260506145702 77 180 8.0 0.0 0.00 0.00 0.00 64 914.2
20260506145553 77 225 19.0 0.0 0.00 0.00 0.00 64 914.2
20260506145445 77 90 36.0 0.0 0.00 0.00 0.00 63 914.2
20260506145336 77 180 15.0 0.0 0.00 0.00 0.00 63 914.3
20260506145228 78 0 31.0 0.0 0.00 0.00 0.00 62 914.2
20260506145119 78 180 116.0 0.0 0.00 0.00 0.00 62 914.3
20260506145011 79 180 37.0 0.0 0.00 0.00 0.00 62 914.3
20260506144902 79 135 62.0 0.0 0.00 0.00 0.00 62 914.3
20260506144754 79 225 21.0 0.0 0.00 0.00 0.00 62 914.1
20260506144646 80 180 86.0 0.0 0.00 0.00 0.00 61 914.2
20260506144537 80 225 41.0 0.0 0.00 0.00 0.00 61 914.3
20260506144429 81 135 5.0 0.0 0.00 0.00 0.00 60 914.2
20260506144320 81 45 12.0 0.0 0.00 0.00 0.00 60 914.1
20260506144212 82 90 44.0 0.0 0.00 0.00 0.00 59 914.1
20260506144103 83 135 3.0 0.0 0.00 0.00 0.00 58 914.0
20260506143955 84 180 44.0 0.0 0.00 0.00 0.00 57 913.9
20260506143846 85 180 49.0 0.0 0.00 0.00 0.00 56 913.9
20260506143738 86 180 59.0 0.0 0.00 0.00 0.00 55 913.9
20260506143630 87 180 61.0 0.0 0.00 0.00 0.00 55 914.0
20260506143521 88 180 67.0 0.0 0.00 0.00 0.00 55 913.9
20260506143413 89 180 44.0 0.0 0.00 0.00 0.00 54 913.9
20260506143304 91 180 18.0 0.0 0.00 0.00 0.00 54 913.9
20260506143156 92 270 22.0 0.0 0.00 0.00 0.00 52 913.8
20260506143047 94 225 30.0 0.0 0.00 0.00 0.00 50 913.9
20260506142939 97 180 60.0 0.0 0.00 0.00 0.00 48 913.9
20260506142830 99 180 109.0 0.0 0.00 0.00 0.00 46 913.9
20260506142722 93 180 61.0 0.0 0.00 0.00 0.00 51 913.9
20260506142614 95 180 14.0 0.0 0.00 0.00 0.00 51 913.9
20260506142505 96 225 65.0 0.0 0.00 0.00 0.00 50 913.9
20260506142357 99 225 81.0 0.0 0.00 0.00 0.00 49 913.9
20260506142248 101 135 2.0 0.0 0.00 0.00 0.00 47 914.0
20260506142140 101 315 3.0 0.0 0.00 0.00 0.00 47 913.8
20260506142031 102 90 47.0 0.0 0.00 0.00 0.00 46 913.9
20260506141923 104 90 65.0 0.0 0.00 0.00 0.00 44 913.9
20260506141815 106 225 73.0 0.0 0.00 0.00 0.00 43 914.0
20260506141706 105 180 91.0 0.0 0.00 0.00 0.00 43 913.9
20260506141558 108 45 72.0 0.0 0.00 0.00 0.00 42 913.8
20260506141449 111 315 38.0 0.0 0.00 0.00 0.00 40 913.8
20260506141341 115 90 92.0 0.0 0.00 0.00 0.00 38 914.1
20260506141232 119 180 44.0 0.0 0.00 0.00 0.00 37 914.1
20260506141124 124 90 50.0 0.0 0.00 0.00 0.00 35 914.3
20260506141015 129 180 89.0 0.0 0.00 0.00 0.00 33 914.2
20260506140907 128 180 86.0 0.0 0.00 0.00 0.00 35 914.4
20260506140759 131 180 63.0 0.0 0.00 0.00 0.00 34 914.1
20260506140650 134 180 75.0 0.0 0.00 0.00 0.00 33 914.0
20260506140542 135 90 57.0 0.0 0.00 0.00 0.00 33 914.0
20260506140433 134 225 36.0 0.0 0.00 0.00 0.00 34 914.1
20260506140325 133 225 8.0 0.0 0.00 0.00 0.00 35 914.1
20260506140217 132 0 25.0 0.0 0.00 0.00 0.00 35 914.1
20260506140108 130 180 8.0 0.0 0.00 0.00 0.00 35 914.1
20260506135959 130 135 40.0 0.0 0.00 0.00 0.00 34 914.2
20260506135851 129 90 50.0 0.0 0.00 0.00 0.00 34 914.3
20260506135743 128 90 27.0 0.0 0.00 0.00 0.00 35 914.4
20260506135634 127 135 69.0 0.0 0.00 0.00 0.00 37 914.4
20260506135417 122 45 8.0 0.0 0.00 0.00 0.00 40 914.1
20260506135309 118 225 21.0 0.0 0.00 0.00 0.00 40 914.2
20260506135200 114 45 16.0 0.0 0.00 0.00 0.00 42 914.2
20260506135052 111 315 68.0 0.0 0.00 0.00 0.00 43 914.2
20260506134944 109 0 25.0 0.0 0.00 0.00 0.00 44 914.2
20260506134835 105 180 15.0 0.0 0.00 0.00 0.00 45 914.3
20260506134727 102 180 31.0 0.0 0.00 0.00 0.00 46 914.4
20260506134618 102 135 49.0 0.0 0.00 0.00 0.00 46 914.4
20260506134510 104 180 20.0 0.0 0.00 0.00 0.00 45 914.3
20260506134401 108 225 91.0 0.0 0.00 0.00 0.00 44 914.2
20260506134253 112 180 24.0 0.0 0.00 0.00 0.00 42 914.1
20260506134144 115 180 35.0 0.0 0.00 0.00 0.00 41 914.2
20260506134036 117 315 18.0 0.0 0.00 0.00 0.00 39 914.1
20260506133928 116 225 10.0 0.0 0.00 0.00 0.00 40 914.3
20260506133819 116 45 74.0 0.0 0.00 0.00 0.00 40 914.2
20260506133712 116 90 38.0 0.0 0.00 0.00 0.00 40 914.3
20260506133602 114 315 81.0 0.0 0.00 0.00 0.00 41 914.2
20260506133454 113 0 15.0 0.0 0.00 0.00 0.00 42 914.3
20260506133345 110 0 11.0 0.0 0.00 0.00 0.00 43 914.3
20260506133237 107 315 18.0 0.0 0.00 0.00 0.00 44 914.4
20260506133128 104 270 19.0 0.0 0.00 0.00 0.00 45 914.4
20260506133020 104 135 21.0 0.0 0.00 0.00 0.00 45 914.4
20260506132912 107 90 36.0 0.0 0.00 0.00 0.00 43 914.3
20260506132803 109 180 12.0 0.0 0.00 0.00 0.00 43 914.3
20260506132655 111 90 29.0 0.0 0.00 0.00 0.00 42 914.4
20260506132546 112 135 1.0 0.0 0.00 0.00 0.00 43 914.4
20260506132438 114 315 32.0 0.0 0.00 0.00 0.00 42 914.3
20260506132329 121 180 55.0 0.0 0.00 0.00 0.00 38 914.2
20260506132221 121 90 81.0 0.0 0.00 0.00 0.00 38 914.3
20260506132112 120 315 16.0 0.0 0.00 0.00 0.00 40 914.3
20260506132005 119 45 15.0 0.0 0.00 0.00 0.00 40 914.3
20260506131856 118 135 31.0 0.0 0.00 0.00 0.00 41 914.3
20260506131747 116 45 24.0 0.0 0.00 0.00 0.00 42 914.2
20260506131639 117 0 31.0 0.0 0.00 0.00 0.00 40 914.4
20260506131530 115 0 17.0 0.0 0.00 0.00 0.00 41 914.4
20260506131422 113 315 37.0 0.0 0.00 0.00 0.00 42 914.4
20260506131313 110 315 18.0 0.0 0.00 0.00 0.00 43 914.4
20260506131205 105 90 16.0 0.0 0.00 0.00 0.00 46 914.5
20260506131057 100 45 14.0 0.0 0.00 0.00 0.00 48 914.5
20260506130948 99 90 29.0 0.0 0.00 0.00 0.00 49 914.5
20260506130840 102 135 10.0 0.0 0.00 0.00 0.00 47 914.4
20260506130731 105 180 61.0 0.0 0.00 0.00 0.00 45 914.4
20260506130623 109 90 42.0 0.0 0.00 0.00 0.00 43 914.4
20260506130406 113 225 37.0 0.0 0.00 0.00 0.00 41 914.4
20260506130257 111 180 51.0 0.0 0.00 0.00 0.00 42 914.6
20260506130149 113 180 16.0 0.0 0.00 0.00 0.00 41 914.5
20260506130041 110 135 45.0 0.0 0.00 0.00 0.00 43 914.4
20260506125932 109 135 22.0 0.0 0.00 0.00 0.00 43 914.6
20260506125824 104 135 16.0 0.0 0.00 0.00 0.00 45 914.5
20260506125715 99 180 19.0 0.0 0.00 0.00 0.00 48 914.5
20260506125607 102 180 67.0 0.0 0.00 0.00 0.00 46 914.4
20260506125458 104 135 53.0 0.0 0.00 0.00 0.00 45 914.5
20260506125350 108 180 53.0 0.0 0.00 0.00 0.00 43 914.4
20260506125241 113 225 70.0 0.0 0.00 0.00 0.00 41 914.5
20260506125133 112 135 80.0 0.0 0.00 0.00 0.00 41 914.5
20260506125025 109 180 42.0 0.0 0.00 0.00 0.00 42 914.5
20260506124916 105 225 44.0 0.0 0.00 0.00 0.00 44 914.5
20260506124808 101 225 109.0 0.0 0.00 0.00 0.00 47 914.4
20260506124659 98 180 41.0 0.0 0.00 0.00 0.00 49 914.4
20260506124551 98 225 43.0 0.0 0.00 0.00 0.00 48 914.5
20260506124442 95 225 32.0 0.0 0.00 0.00 0.00 49 914.6
20260506124334 94 180 61.0 0.0 0.00 0.00 0.00 50 914.6
20260506124226 96 225 68.0 0.0 0.00 0.00 0.00 49 914.5
20260506124117 99 180 53.0 0.0 0.00 0.00 0.00 47 914.5
20260506124009 103 180 74.0 0.0 0.00 0.00 0.00 46 914.5
20260506123900 108 180 91.0 0.0 0.00 0.00 0.00 43 914.6
20260506123752 107 180 11.0 0.0 0.00 0.00 0.00 45 914.6
20260506123643 111 135 30.0 0.0 0.00 0.00 0.00 42 914.6
20260506123535 108 225 21.0 0.0 0.00 0.00 0.00 44 914.7
20260506123426 105 90 57.0 0.0 0.00 0.00 0.00 46 914.7
20260506123318 104 180 55.0 0.0 0.00 0.00 0.00 47 914.8
20260506123210 10 180 29.0 0.0 0.00 0.00 0.00 50 914.8
20260506123101 94 45 79.0 0.0 0.00 0.00 0.00 53 914.7
20260506122953 96 0 9.0 0.0 0.00 0.00 0.00 53 914.7
20260506122844 95 135 52.0 0.0 0.00 0.00 0.00 53 914.8
20260506122736 95 135 23.0 0.0 0.00 0.00 0.00 54 914.9
20260506122627 91 225 41.0 0.0 0.00 0.00 0.00 57 914.8
20260506122519 92 180 25.0 0.0 0.00 0.00 0.00 58 915.0
20260506122410 93 0 5.0 0.0 0.00 0.00 0.00 57 914.9
20260506122305 91 0 17.0 0.0 0.00 0.00 0.00 58 914.9
20260506122154 89 180 0.0 0.0 0.00 0.00 0.00 59 915.0
20260506122045 90 0 27.0 0.0 0.00 0.00 0.00 59 915.0
20260506121937 91 45 25.0 0.0 0.00 0.00 0.00 58 914.9
20260506121828 90 0 28.0 0.0 0.00 0.00 0.00 59 914.9
20260506121720 88 315 54.0 0.0 0.00 0.00 0.00 60 914.8
20260506121611 87 0 45.0 0.0 0.00 0.00 0.00 61 914.7
20260506121503 87 315 12.0 0.0 0.00 0.00 0.00 61 914.8
20260506121355 87 315 5.0 0.0 0.00 0.00 0.00 60 914.8
20260506121246 87 315 22.0 0.0 0.00 0.00 0.00 60 914.8
20260506121138 88 315 13.0 0.0 0.00 0.00 0.00 60 914.9
20260506121029 88 315 32.0 0.0 0.00 0.00 0.00 59 914.9
20260506120921 88 90 9.0 0.0 0.00 0.00 0.00 59 914.9
20260506120812 88 180 17.0 0.0 0.00 0.00 0.00 59 915.0
20260506120704 88 180 54.0 0.0 0.00 0.00 0.00 59 914.9
20260506120555 89 45 19.0 0.0 0.00 0.00 0.00 59 914.9
20260506120447 89 270 44.0 0.0 0.00 0.00 0.00 59 914.9
20260506120338 89 225 44.0 0.0 0.00 0.00 0.00 59 914.9
20260506120230 89 90 2.0 0.0 0.00 0.00 0.00 59 914.9
20260506120122 89 315 22.0 0.0 0.00 0.00 0.00 59 914.8
20260506120013 89 180 10.0 0.0 0.00 0.00 0.00 59 914.9
20260506115905 89 90 14.0 0.0 0.00 0.00 0.00 59 914.9
20260506115756 89 180 17.0 0.0 0.00 0.00 0.00 59 914.9
20260506115648 89 0 2.0 0.0 0.00 0.00 0.00 59 915.0
20260506115539 89 315 67.0 0.0 0.00 0.00 0.00 58 915.0
20260506115431 90 225 2.0 0.0 0.00 0.00 0.00 59 915.1
20260506115323 90 0 1.0 0.0 0.00 0.00 0.00 58 915.1
20260506115214 91 315 17.0 0.0 0.00 0.00 0.00 57 915.0
20260506115106 92 0 10.0 0.0 0.00 0.00 0.00 57 914.9
20260506114957 93 0 9.0 0.0 0.00 0.00 0.00 57 914.9
20260506114849 94 225 27.0 0.0 0.00 0.00 0.00 56 914.9
20260506114740 95 225 28.0 0.0 0.00 0.00 0.00 55 914.9
20260506114632 95 225 12.0 0.0 0.00 0.00 0.00 55 915.0
20260506114523 96 135 23.0 0.0 0.00 0.00 0.00 54 915.1
20260506114415 97 0 50.0 0.0 0.00 0.00 0.00 54 915.1
20260506114307 98 0 19.0 0.0 0.00 0.00 0.00 54 915.2
20260506114158 99 180 33.0 0.0 0.00 0.00 0.00 53 915.1
20260506114050 100 135 18.0 0.0 0.00 0.00 0.00 53 915.1
20260506113941 102 180 0.0 0.0 0.00 0.00 0.00 53 915.0
20260506113833 104 270 44.0 0.0 0.00 0.00 0.00 52 914.9
20260506113724 106 0 17.0 0.0 0.00 0.00 0.00 51 914.9
20260506113617 107 270 18.0 0.0 0.00 0.00 0.00 50 914.9
20260506113507 109 270 6.0 0.0 0.00 0.00 0.00 49 914.9
20260506113359 110 270 13.0 0.0 0.00 0.00 0.00 47 914.9
20260506113251 110 315 9.0 0.0 0.00 0.00 0.00 47 915.0
20260506113142 109 270 25.0 0.0 0.00 0.00 0.00 47 915.0
20260506113034 108 180 21.0 0.0 0.00 0.00 0.00 46 915.1
20260506112925 106 135 57.0 0.0 0.00 0.00 0.00 47 915.2
20260506112817 109 180 43.0 0.0 0.00 0.00 0.00 46 915.1
20260506112708 110 135 24.0 0.0 0.00 0.00 0.00 46 915.1
20260506112600 109 45 33.0 0.0 0.00 0.00 0.00 46 915.0
20260506112452 108 315 40.0 0.0 0.00 0.00 0.00 46 915.0
20260506112343 107 0 24.0 0.0 0.00 0.00 0.00 46 915.1
20260506112235 106 90 14.0 0.0 0.00 0.00 0.00 47 915.1
20260506112126 105 90 19.0 0.0 0.00 0.00 0.00 47 915.2
20260506112018 104 135 45.0 0.0 0.00 0.00 0.00 48 915.2
20260506111909 104 135 74.0 0.0 0.00 0.00 0.00 47 915.2
20260506111801 106 225 43.0 0.0 0.00 0.00 0.00 47 915.0
20260506111652 108 180 47.0 0.0 0.00 0.00 0.00 47 915.0
20260506111545 111 180 57.0 0.0 0.00 0.00 0.00 45 915.0
20260506111436 110 180 16.0 0.0 0.00 0.00 0.00 45 915.0
20260506111327 110 90 77.0 0.0 0.00 0.00 0.00 45 915.1
20260506111219 110 180 64.0 0.0 0.00 0.00 0.00 45 915.0
20260506111110 111 225 42.0 0.0 0.00 0.00 0.00 45 915.0
20260506111002 111 180 86.0 0.0 0.00 0.00 0.00 45 915.1
20260506110853 110 180 43.0 0.0 0.00 0.00 0.00 47 915.2
20260506110745 111 180 72.0 0.0 0.00 0.00 0.00 46 915.2
20260506110636 111 180 36.0 0.0 0.00 0.00 0.00 47 915.1
20260506110528 111 180 65.0 0.0 0.00 0.00 0.00 47 915.2
20260506110420 110 135 29.0 0.0 0.00 0.00 0.00 49 915.2
20260506110311 110 90 1.0 0.0 0.00 0.00 0.00 49 915.1
20260506110203 108 315 58.0 0.0 0.00 0.00 0.00 49 915.1
20260506110054 108 0 27.0 0.0 0.00 0.00 0.00 49 915.2
20260506105946 107 0 30.0 0.0 0.00 0.00 0.00 50 915.2
20260506105837 106 135 22.0 0.0 0.00 0.00 0.00 50 915.2
20260506105729 105 180 17.0 0.0 0.00 0.00 0.00 50 915.3
20260506105621 104 180 17.0 0.0 0.00 0.00 0.00 50 915.4
20260506105512 103 225 37.0 0.0 0.00 0.00 0.00 50 915.5
20260506105404 103 180 54.0 0.0 0.00 0.00 0.00 49 915.4
20260506105255 103 180 46.0 0.0 0.00 0.00 0.00 50 915.3
20260506105147 103 90 51.0 0.0 0.00 0.00 0.00 50 915.4
20260506105038 103 225 70.0 0.0 0.00 0.00 0.00 50 915.4
20260506104930 103 180 105.0 0.0 0.00 0.00 0.00 49 915.4
20260506104821 103 180 33.0 0.0 0.00 0.00 0.00 50 915.5
20260506104713 103 225 79.0 0.0 0.00 0.00 0.00 50 915.4
20260506104605 104 180 93.0 0.0 0.00 0.00 0.00 52 915.5
20260506104456 104 90 48.0 0.0 0.00 0.00 0.00 54 915.4
20260506104348 103 225 34.0 0.0 0.00 0.00 0.00 55 915.4
20260506104239 103 225 36.0 0.0 0.00 0.00 0.00 57 915.5
20260506104131 101 315 13.0 0.0 0.00 0.00 0.00 57 915.5
20260506104022 101 225 17.0 0.0 0.00 0.00 0.00 56 915.5
20260506103914 100 225 74.0 0.0 0.00 0.00 0.00 55 915.6
20260506103805 100 180 112.0 0.0 0.00 0.00 0.00 55 915.6
20260506103657 100 90 107.0 0.0 0.00 0.00 0.00 54 915.5
20260506103549 101 180 67.0 0.0 0.00 0.00 0.00 55 915.6
20260506103440 101 225 19.0 0.0 0.00 0.00 0.00 57 915.6
20260506103332 100 90 10.0 0.0 0.00 0.00 0.00 58 915.6
20260506103223 10 180 36.0 0.0 0.00 0.00 0.00 58 915.7
20260506103115 99 90 81.0 0.0 0.00 0.00 0.00 58 915.7
20260506103006 99 180 8.0 0.0 0.00 0.00 0.00 59 915.7
20260506102858 98 180 33.0 0.0 0.00 0.00 0.00 59 915.8
20260506102749 98 180 28.0 0.0 0.00 0.00 0.00 59 915.8
20260506102641 98 180 35.0 0.0 0.00 0.00 0.00 58 915.7
20260506102533 98 225 104.0 0.0 0.00 0.00 0.00 57 915.8
20260506102424 98 180 73.0 0.0 0.00 0.00 0.00 59 915.7
20260506102316 97 180 18.0 0.0 0.00 0.00 0.00 61 915.8
20260506102207 96 135 20.0 0.0 0.00 0.00 0.00 62 915.8
20260506102059 95 225 73.0 0.0 0.00 0.00 0.00 61 915.9
20260506101950 94 180 70.0 0.0 0.00 0.00 0.00 62 915.9
20260506101842 93 180 39.0 0.0 0.00 0.00 0.00 63 916.0
20260506101734 92 180 23.0 0.0 0.00 0.00 0.00 63 916.0
20260506101625 91 225 11.0 0.0 0.00 0.00 0.00 60 916.0
20260506101517 90 225 14.0 0.0 0.00 0.00 0.00 59 916.1
20260506101408 91 180 48.0 0.0 0.00 0.00 0.00 58 916.1
20260506101300 92 225 62.0 0.0 0.00 0.00 0.00 59 916.1
20260506101151 92 180 68.0 0.0 0.00 0.00 0.00 60 916.1
20260506101043 92 180 53.0 0.0 0.00 0.00 0.00 61 916.2
20260506100934 91 180 67.0 0.0 0.00 0.00 0.00 63 916.1
20260506100826 90 180 10.0 0.0 0.00 0.00 0.00 66 916.0
20260506100718 89 225 22.0 0.0 0.00 0.00 0.00 65 916.1
20260506100609 87 180 51.0 0.0 0.00 0.00 0.00 64 916.2
20260506100501 86 180 12.0 0.0 0.00 0.00 0.00 67 916.2
20260506100352 84 180 5.0 0.0 0.00 0.00 0.00 66 916.2
20260506100244 83 135 39.0 0.0 0.00 0.00 0.00 64 916.3
20260506100135 82 180 40.0 0.0 0.00 0.00 0.00 63 916.3
20260506100027 82 225 41.0 0.0 0.00 0.00 0.00 64 916.3
20260506095918 82 225 17.0 0.0 0.00 0.00 0.00 65 916.3
20260506095810 81 270 49.0 0.0 0.00 0.00 0.00 65 916.3
20260506095702 80 180 47.0 0.0 0.00 0.00 0.00 64 916.3
20260506095553 80 225 72.0 0.0 0.00 0.00 0.00 64 916.3
20260506095445 80 225 19.0 0.0 0.00 0.00 0.00 64 916.4
20260506095336 80 180 18.0 0.0 0.00 0.00 0.00 64 916.4
20260506095228 80 225 61.0 0.0 0.00 0.00 0.00 62 916.4
20260506095119 80 180 81.0 0.0 0.00 0.00 0.00 62 916.4
20260506095011 80 180 60.0 0.0 0.00 0.00 0.00 62 916.4
20260506094903 80 135 83.0 0.0 0.00 0.00 0.00 62 916.4
20260506094754 81 180 69.0 0.0 0.00 0.00 0.00 62 916.4
20260506094646 81 180 55.0 0.0 0.00 0.00 0.00 63 916.5
20260506094537 81 225 10.0 0.0 0.00 0.00 0.00 64 916.4
20260506094429 81 90 46.0 0.0 0.00 0.00 0.00 64 916.5
20260506094320 81 225 26.0 0.0 0.00 0.00 0.00 64 916.5
20260506094212 81 315 37.0 0.0 0.00 0.00 0.00 63 916.4
20260506094103 82 270 28.0 0.0 0.00 0.00 0.00 62 916.4
20260506093955 82 135 40.0 0.0 0.00 0.00 0.00 62 916.4
20260506093847 83 90 25.0 0.0 0.00 0.00 0.00 63 916.4
20260506093738 83 135 29.0 0.0 0.00 0.00 0.00 63 916.5
20260506093630 83 180 40.0 0.0 0.00 0.00 0.00 63 916.4
20260506093521 84 180 43.0 0.0 0.00 0.00 0.00 63 916.5
20260506093413 84 180 19.0 0.0 0.00 0.00 0.00 63 916.4
20260506093304 85 225 45.0 0.0 0.00 0.00 0.00 63 916.5
20260506093156 86 180 23.0 0.0 0.00 0.00 0.00 64 916.5
20260506093048 86 135 26.0 0.0 0.00 0.00 0.00 64 916.5
20260506092939 86 0 30.0 0.0 0.00 0.00 0.00 64 916.4
20260506092831 86 0 26.0 0.0 0.00 0.00 0.00 64 916.4
20260506092722 87 315 1.0 0.0 0.00 0.00 0.00 64 916.4
20260506092614 87 45 4.0 0.0 0.00 0.00 0.00 63 916.4
20260506092505 87 45 9.0 0.0 0.00 0.00 0.00 63 916.4
20260506092357 87 270 8.0 0.0 0.00 0.00 0.00 63 916.3
20260506092140 88 0 10.0 0.0 0.00 0.00 0.00 61 916.3
20260506092032 88 180 21.0 0.0 0.00 0.00 0.00 61 916.2
20260506091923 89 180 13.0 0.0 0.00 0.00 0.00 61 916.2
20260506091815 90 315 9.0 0.0 0.00 0.00 0.00 61 916.2
20260506091706 90 45 25.0 0.0 0.00 0.00 0.00 60 916.2
20260506091558 91 0 32.0 0.0 0.00 0.00 0.00 59 916.2
20260506091449 92 315 34.0 0.0 0.00 0.00 0.00 60 916.2
20260506091341 92 135 28.0 0.0 0.00 0.00 0.00 61 916.4
20260506091232 92 135 56.0 0.0 0.00 0.00 0.00 62 916.3
20260506091124 91 225 2.0 0.0 0.00 0.00 0.00 62 916.2
20260506091016 91 270 3.0 0.0 0.00 0.00 0.00 61 916.3
20260506090907 91 90 18.0 0.0 0.00 0.00 0.00 59 916.3
20260506090759 91 90 45.0 0.0 0.00 0.00 0.00 58 916.3
20260506090650 92 225 92.0 0.0 0.00 0.00 0.00 57 916.3
20260506090542 93 180 71.0 0.0 0.00 0.00 0.00 57 916.2
20260506090433 93 180 43.0 0.0 0.00 0.00 0.00 58 916.2
20260506090325 94 270 60.0 0.0 0.00 0.00 0.00 59 916.2
20260506090216 94 225 89.0 0.0 0.00 0.00 0.00 59 916.2
20260506090108 94 180 69.0 0.0 0.00 0.00 0.00 63 916.2
20260506090000 94 180 9.0 0.0 0.00 0.00 0.00 65 916.3
20260506085851 93 45 37.0 0.0 0.00 0.00 0.00 65 916.3
20260506085743 92 315 18.0 0.0 0.00 0.00 0.00 65 916.4
20260506085634 91 315 23.0 0.0 0.00 0.00 0.00 65 916.3
20260506085526 91 90 2.0 0.0 0.00 0.00 0.00 66 916.3
20260506085417 90 315 9.0 0.0 0.00 0.00 0.00 65 916.3
20260506085309 90 0 25.0 0.0 0.00 0.00 0.00 64 916.3
20260506085201 90 315 11.0 0.0 0.00 0.00 0.00 64 916.3
20260506085052 90 45 9.0 0.0 0.00 0.00 0.00 64 916.3
20260506084944 90 90 28.0 0.0 0.00 0.00 0.00 63 916.3
20260506084835 90 90 16.0 0.0 0.00 0.00 0.00 63 916.3
20260506084727 90 45 27.0 0.0 0.00 0.00 0.00 64 916.4
20260506084618 90 90 33.0 0.0 0.00 0.00 0.00 65 916.4
20260506084510 90 45 7.0 0.0 0.00 0.00 0.00 67 916.4
20260506084401 90 0 36.0 0.0 0.00 0.00 0.00 67 916.3
20260506084253 90 45 54.0 0.0 0.00 0.00 0.00 67 916.3
20260506084145 89 0 30.0 0.0 0.00 0.00 0.00 67 916.3
20260506084036 89 45 26.0 0.0 0.00 0.00 0.00 68 916.3
20260506083928 89 45 33.0 0.0 0.00 0.00 0.00 67 916.4
20260506083819 88 0 46.0 0.0 0.00 0.00 0.00 67 916.3
20260506083711 88 0 48.0 0.0 0.00 0.00 0.00 67 916.4
20260506083602 88 0 46.0 0.0 0.00 0.00 0.00 67 916.4
20260506083454 87 45 35.0 0.0 0.00 0.00 0.00 69 916.4
20260506083346 86 315 44.0 0.0 0.00 0.00 0.00 69 916.4
20260506083237 85 0 33.0 0.0 0.00 0.00 0.00 70 916.4
20260506083129 84 90 28.0 0.0 0.00 0.00 0.00 70 916.5
20260506083020 83 0 33.0 0.0 0.00 0.00 0.00 70 916.6
20260506082912 82 0 9.0 0.0 0.00 0.00 0.00 70 916.6
20260506082803 81 0 18.0 0.0 0.00 0.00 0.00 71 916.6
20260506082655 80 315 30.0 0.0 0.00 0.00 0.00 71 916.5
20260506082546 79 45 22.0 0.0 0.00 0.00 0.00 71 916.6
20260506082438 78 45 64.0 0.0 0.00 0.00 0.00 70 916.6
20260506082330 77 315 32.0 0.0 0.00 0.00 0.00 70 916.5
20260506082221 77 0 94.0 0.0 0.00 0.00 0.00 70 916.6
20260506082113 76 0 8.0 0.0 0.00 0.00 0.00 70 916.5
20260506082004 76 315 36.0 0.0 0.00 0.00 0.00 69 916.6
20260506081856 75 0 39.0 0.0 0.00 0.00 0.00 68 916.6
20260506081747 75 0 32.0 0.0 0.00 0.00 0.00 68 916.6
20260506081639 75 315 20.0 0.0 0.00 0.00 0.00 69 916.6
20260506081530 75 315 16.0 0.0 0.00 0.00 0.00 69 916.7
20260506081422 74 225 38.0 0.0 0.00 0.00 0.00 71 916.7
20260506081314 74 270 21.0 0.0 0.00 0.00 0.00 73 916.7
20260506081206 73 45 42.0 0.0 0.00 0.00 0.00 74 916.7
20260506081057 71 315 35.0 0.0 0.00 0.00 0.00 74 916.7
20260506080948 69 315 28.0 0.0 0.00 0.00 0.00 72 916.8
20260506080840 68 45 18.0 0.0 0.00 0.00 0.00 71 916.8
20260506080731 67 45 34.0 0.0 0.00 0.00 0.00 70 916.9
20260506080623 67 90 20.0 0.0 0.00 0.00 0.00 70 916.9
20260506080514 66 0 50.0 0.0 0.00 0.00 0.00 70 916.9
20260506080406 66 0 50.0 0.0 0.00 0.00 0.00 70 916.9
20260506080258 66 315 9.0 0.0 0.00 0.00 0.00 70 917.0
20260506080149 66 315 18.0 0.0 0.00 0.00 0.00 70 916.9
20260506073427 72 135 46.0 0.0 0.00 0.00 0.00 68 916.9
20260506073318 72 0 11.0 0.0 0.00 0.00 0.00 68 916.9
20260506073210 72 0 55.0 0.0 0.00 0.00 0.00 68 916.9
20260506073101 72 0 47.0 0.0 0.00 0.00 0.00 68 917.0
20260506072953 72 45 15.0 0.0 0.00 0.00 0.00 67 917.0
20260506072844 72 315 23.0 0.0 0.00 0.00 0.00 67 917.0
20260506072736 73 315 56.0 0.0 0.00 0.00 0.00 66 917.0
20260506072627 73 315 26.0 0.0 0.00 0.00 0.00 66 917.0
20260506072519 73 0 20.0 0.0 0.00 0.00 0.00 65 917.0
20260506072411 74 0 39.0 0.0 0.00 0.00 0.00 65 917.0
20260506072305 74 45 8.0 0.0 0.00 0.00 0.00 65 917.0
20260506072154 75 270 53.0 0.0 0.00 0.00 0.00 64 917.0
20260506072045 76 45 18.0 0.0 0.00 0.00 0.00 64 916.9
20260506071937 76 0 46.0 0.0 0.00 0.00 0.00 64 917.0
20260506071828 77 45 19.0 0.0 0.00 0.00 0.00 64 916.9
20260506071720 78 315 68.0 0.0 0.00 0.00 0.00 64 917.0
20260506071612 78 0 49.0 0.0 0.00 0.00 0.00 64 916.9
20260506071503 78 45 13.0 0.0 0.00 0.00 0.00 64 917.0
20260506071355 78 180 19.0 0.0 0.00 0.00 0.00 64 917.0
20260506071246 78 315 3.0 0.0 0.00 0.00 0.00 65 917.0
20260506071138 78 90 18.0 0.0 0.00 0.00 0.00 65 917.1
20260506071029 77 0 23.0 0.0 0.00 0.00 0.00 65 917.1
20260506070921 77 315 45.0 0.0 0.00 0.00 0.00 65 917.1
20260506070812 76 0 63.0 0.0 0.00 0.00 0.00 65 917.2
20260506070704 76 0 24.0 0.0 0.00 0.00 0.00 65 917.1
20260506070556 75 315 24.0 0.0 0.00 0.00 0.00 65 917.2
20260506070447 74 45 35.0 0.0 0.00 0.00 0.00 65 917.1
20260506070339 74 0 35.0 0.0 0.00 0.00 0.00 65 917.2
20260506070230 74 0 37.0 0.0 0.00 0.00 0.00 66 917.1
20260506070122 73 45 59.0 0.0 0.00 0.00 0.00 66 917.1
20260506062452 65 0 26.0 0.0 0.00 0.00 0.00 69 917.6
20260506062343 65 0 49.0 0.0 0.00 0.00 0.00 69 917.6
20260506062235 65 0 7.0 0.0 0.00 0.00 0.00 69 917.5
20260506062126 65 45 7.0 0.0 0.00 0.00 0.00 69 917.6
20260506062018 65 45 9.0 0.0 0.00 0.00 0.00 68 917.6
20260506061909 66 315 40.0 0.0 0.00 0.00 0.00 68 917.6
20260506061801 66 0 28.0 0.0 0.00 0.00 0.00 68 917.7
20260506061653 66 0 15.0 0.0 0.00 0.00 0.00 68 917.7
20260506061544 67 0 29.0 0.0 0.00 0.00 0.00 68 917.7
20260506061436 67 0 39.0 0.0 0.00 0.00 0.00 67 917.7
20260506061327 68 0 70.0 0.0 0.00 0.00 0.00 68 917.7
20260506061219 68 0 41.0 0.0 0.00 0.00 0.00 68 917.6
20260506061110 68 0 11.0 0.0 0.00 0.00 0.00 68 917.7
20260506061002 67 90 9.0 0.0 0.00 0.00 0.00 68 917.7
20260506060854 67 45 23.0 0.0 0.00 0.00 0.00 68 917.7
20260506060745 66 45 59.0 0.0 0.00 0.00 0.00 69 917.7
20260506060637 65 0 23.0 0.0 0.00 0.00 0.00 69 917.7
20260506060528 65 0 42.0 0.0 0.00 0.00 0.00 69 917.8
20260506060420 64 315 28.0 0.0 0.00 0.00 0.00 70 917.8
20260506060311 64 0 19.0 0.0 0.00 0.00 0.00 70 917.9
20260506060203 63 90 47.0 0.0 0.00 0.00 0.00 70 917.8
20260506051409 51 0 3.0 0.0 0.00 0.00 0.00 75 918.3
20260506051300 51 0 31.0 0.0 0.00 0.00 0.00 75 918.3
20260506051151 51 270 16.0 0.0 0.00 0.00 0.00 75 918.3
20260506051043 51 0 33.0 0.0 0.00 0.00 0.00 75 918.4
20260506050935 51 315 34.0 0.0 0.00 0.00 0.00 75 918.4
20260506050826 51 0 20.0 0.0 0.00 0.00 0.00 75 918.4
20260506050718 51 0 32.0 0.0 0.00 0.00 0.00 75 918.4
20260506050609 50 45 32.0 0.0 0.00 0.00 0.00 75 918.3
20260506050501 50 0 34.0 0.0 0.00 0.00 0.00 75 918.3
20260506050353 50 0 2.0 0.0 0.00 0.00 0.00 75 918.3
20260506050244 50 0 5.0 0.0 0.00 0.00 0.00 75 918.3
20260506050136 50 0 7.0 0.0 0.00 0.00 0.00 75 918.3
20260506045120 48 0 18.0 0.0 0.00 0.00 0.00 74 918.4
20260506044903 48 0 36.0 0.0 0.00 0.00 0.00 74 918.6